SCP
0 0 0 0 0 0 0 0 0 0 0 0 0 0 0 0 0 0 0 0 0 0 0 0 0 0 0 0 0 0 0 0 0 0 0 0 -0 0 0 0 0 -0 -0 -0 0 0 0 -0 -0 -0 -0 0 -0 -0
0 0 0 0 0 0 0 0 0 0 0 0 0 0 0 0 0 0 0 0 0 0 0 0 0 0 0 0 0 0 0 0 0 0 0 0 -0 0 0 0 0 -0 0 0 0 0 -0 -0 -0 -0 0 0 0 0
0 0 0 0 0 0 0 0 0 0 0 0 0 0 0 0 0 0 0 0 0 0 0 0 0 0 0 0 0 0 0 0 0 0 0 0 0 0 0 0 0 -0 0 0 0 0 -0 0 -0 -0 0 0 0 0
0 0 0 0 0 0 0 0 0 0 0 0 0 0 0 0 0 0 0 0 0 0 0 0 0 0 0 0 0 0 -0 0 0 0 0 0 0 0 0 0 0 0 -0 0 -0 0 0 -0 -0 -0 0 0 0 0
0 0 0 0 0 0 0 0 0 0 0 0 0 0 0 0 0 0 0 0 0 0 0 0 0 0 0 0 0 0 0 0 0 0 0 0 0 -0 -0 0 0 -0 -0 0 0 0 0 0 0 0 0 0 0 0
0 0 0 0 0 0 0 0 0 0 0 0 0 0 0 0 0 0 0 0 0 0 0 0 0 0 0 0 0 0 0 0 0 0 0 0 0 -0 -0 0 0 0 -0 -0 0 0 0 -0 0 0 0 0 0 0
0 0 0 0 0 0 0 0 0 0 0 0 0 0 0 0 0 0 0 0 0 0 0 0 0 0 0 0 0 0 0 0 0 0 0 0 0 0 0 0 0 0 -0 -0 -0 0 0 0 0 0 0 0 0 0
0 0 0 0 0 0 0 0 0 0 0 0 0 0 0 0 0 0 0 0 0 0 0 0 0 0 0 0 0 0 0 0 0 0 0 0 0 -0 0 -0 0 0 -0 -0 -0 -0 0 0 0 0 0 0 0 0
0 0 0 0 0 0 0 0 0 0 0 0 0 0 0 0 0 0 0 0 0 0 0 0 0 0 0 0 -0 0 0 0 0 0 0 0 0 -0 -0 0 0 0 0 0 0 0 0 0 0 0 0 0 0 0
0 0 0 0 0 0 0 0 0 0 0 0 0 0 0 0 0 0 0 0 0 0 0 0 0 0 0 0 0 0 0 0 0 0 0 0 0 0 0 0 -0 -0 0 0 -0 0 0 0 0 0 0 0 0 0
0 0 0 0 0 0 0 0 0 0 0 0 0 0 0 0 0 0 0 0 0 0 0 0 0 0 0 0 -0 0 0 0 0 0 0 0 0 0 0 0 -0 -0 0 0 -0 0 -0 -0 0 0 0 0 0 0
0 0 0 0 0 0 0 0 0 0 0 0 0 0 0 0 0 0 0 0 0 0 0 0 0 -0 -0 -0 0 0 0 0 0 0 0 0 0 0 0 0 -0 -0 -0 0 0 0 -0 -0 0 0 0 0 0 0
0 0 0 0 0 0 0 0 0 0 0 0 0 0 0 0 0 0 0 0 0 0 0 0 0 0 0 0 0 0 0 0 0 0 0 0 0 0 0 0 -0 -0 -0 0 0 0 0 0 0 0 0 0 0 0
0 0 0 0 0 0 0 0 0 0 0 0 0 0 0 0 0 0 0 0 0 0 0 0 0 0 0 0 -0 0 0 0 0 0 0 0 0 0 0 0 -0 -0 0 0 0 0 0 0 0 0 0 0 0 0
0 0 0 0 0 0 0 0 0 0 0 0 0 0 0 0 0 0 0 0 0 0 0 -0 0 0 0 -0 0 0 0 0 0 0 0 0 0 0 0 0 0 -0 -0 0 0 0 0 0 0 0 0 0 0 0
0 0 0 0 0 0 0 0 0 0 0 0 0 0 0 0 0 0 0 0 0 0 -0 0 0 0 0 0 0 0 0 0 0 0 0 0 0 0 0 0 -0 -0 -0 -0 0 0 0 0 0 0 0 0 0 0
0 0 0 0 0 0 0 0 0 0 0 0 0 0 0 0 0 0 0 0 0 -0 0 0 0 0 -0 0 0 0 0 0 0 0 0 0 0 0 0 0 -0 -0 -0 -0 -0 0 0 0 0 0 0 0 0 0
0 0 0 0 0 0 0 0 0 0 0 0 0 0 0 0 0 0 0 0 -0 -0 0 0 0 0 0 0 0 0 0 0 0 0 0 0 0 0 0 -0 -0 -0 -0 -0 -0 -0 -0 0 0 0 0 0 0 0
0 0 0 0 0 0 0 0 0 0 0 0 0 0 0 0 0 0 0 0 0 0 0 0 0 0 0 0 0 0 0 0 0 0 0 0 0 0 -0 -0 -0 0 0 -0 -0 -0 -0 -0 0 0 0 0 0 0
0 0 0 0 0 0 0 0 0 0 0 0 0 0 0 0 0 0 0 0 0 0 0 0 0 0 0 0 0 -0 0 0 0 0 0 0 0 0 0 0 0 -0 -0 0 -0 -0 -0 -0 0 0 0 0 0 0
0 0 0 0 0 0 0 0 0 0 0 0 0 0 0 0 0 0 0 0 0 0 0 0 0 0 0 0 0 0 0 0 0 0 0 0 0 0 0 0 0 0 -0 -0 0 -0 -0 -0 -0 0 0 0 -0 0
0 0 0 0 0 0 0 0 0 0 0 0 0 0 0 0 0 0 -0 0 0 0 0 0 0 0 0 0 0 0 0 0 0 0 0 -0 -0 -0 0 0 0 0 0 0 -0 -0 -0 -0 0 0 0 0 0 0
0 0 0 0 0 0 0 0 -0 -0 -0 0 0 0 0 -0 0 0 0 0 0 0 0 0 0 0 0 -0 -0 -0 0 0 0 0 0 0 -0 -0 -0 0 0 0 0 -0 -0 -0 -0 0 0 0 0 0 0 0
0 0 0 0 0 0 0 -0 -0 -0 0 0 0 0 0 0 0 0 0 -0 0 0 0 0 0 0 0 -0 0 0 0 0 0 0 0 0 0 0 -0 -0 0 0 0 0 0 0 0 0 0 0 0 0 0 0
0 0 0 0 0 -0 -0 -0 -0 -0 0 0 0 0 0 0 0 0 -0 -0 0 0 0 0 0 -0 0 -0 0 0 0 -0 0 0 0 -0 0 0 0 0 0 0 0 0 0 -0 0 0 0 -0 0 0 0 0
-0 0 -0 0 0 0 0 0 -0 -0 -0 0 0 0 0 0 0 0 0 0 0 0 0 -0 -0 -0 0 0 0 0 0 0 0 0 0 -0 0 0 0 0 0 0 0 0 0 0 -0 0 0 0 0 0 0 0
0 0 -0 -0 0 0 -0 -0 0 0 0 0 0 0 0 0 0 0 0 0 0 0 0 -0 0 0 0 0 0 0 0 -0 0 0 0 -0 0 0 0 0 0 0 0 0 0 0 -0 -0 -0 -0 0 0 0 -0
0 0 0 -0 -0 0 0 0 0 0 0 0 0 0 0 0 0 0 0 0 0 0 0 0 0 0 0 0 0 0 0 0 0 0 0 0 0 0 0 0 0 0 0 0 0 0 0 -0 0 -0 -0 -0 -0 -0
-0 0 0 0 0 0 0 0 0 0 0 0 0 0 0 0 0 0 0 0 0 0 0 0 0 0 -0 0 0 -0 0 0 0 0 0 0 0 0 0 0 0 0 0 0 0 0 0 0 0 0 0 0 0 0
0 0 0 0 0 0 0 0 0 0 0 0 0 0 0 0 0 0 0 0 0 0 0 0 0 0 -0 -0 -0 -0 0 0 0 0 0 0 0 0 0 0 0 0 0 0 0 0 0 0 0 -0 -0 0 0 -0
0 0 0 0 0 0 0 0 0 0 0 0 0 0 0 0 0 0 0 0 0 0 0 0 0 0 0 0 0 0 0 0 0 0 0 0 0 0 0 0 0 0 0 0 0 0 0 0 0 0 0 0 -0 0
0 0 0 0 0 0 0 0 0 0 0 0 0 0 0 -0 0 0 0 0 0 0 0 0 0 0 0 0 -0 0 0 -0 -0 -0 -0 0 0 0 0 0 0 0 0 0 0 0 -0 0 -0 0 0 0 -0 -0
0 0 0 0 0 0 0 0 0 0 0 0 0 0 0 0 0 0 0 0 0 0 0 0 0 0 0 0 0 -0 -0 -0 -0 -0 -0 0 0 0 0 0 0 0 0 0 0 -0 0 -0 0 -0 0 0 0 0
Wind_Speed_500mb
45 44 47 45 45 46 46 48 48 48 46 45 44 42 41 44 41 40 37 33 26 17 59 26 28 52 58 47 25 38 23 17 17 15 10 13 12 10 11 26 15 10 13 11 15 10 10 50 23 14 24 52 49 63
43 43 47 47 45 46 49 48 48 47 43 38 42 43 40 42 42 43 44 32 26 33 57 84 53 42 42 41 46 26 30 22 9 8 9 7 15 10 22 10 12 7 6 9 7 9 18 34 29 40 49 50 43 47
41 41 43 44 44 44 46 47 47 47 45 41 40 43 43 38 38 43 38 29 21 28 52 36 42 24 26 28 23 24 2 13 13 18 10 5 10 3 9 11 14 12 7 8 15 5 31 29 49 62 53 30 36 39
41 41 42 44 44 44 46 46 45 47 46 44 43 44 45 37 36 34 33 29 25 17 14 20 25 49 33 26 28 35 42 23 18 27 20 8 8 9 9 11 8 4 22 19 16 9 41 7 56 58 53 28 29 36
42 42 43 44 45 46 46 46 46 45 44 44 41 38 36 31 20 28 32 36 33 14 13 39 64 18 6 16 47 33 28 22 15 12 10 12 14 7 12 6 2 4 7 8 8 34 11 35 51 36 22 26 32 46
43 42 42 43 44 46 47 47 46 43 41 40 36 34 34 25 21 22 11 3 6 20 13 10 36 44 31 23 14 31 31 27 16 11 20 12 10 6 7 6 7 5 13 15 11 37 30 31 28 25 22 25 38 56
41 41 41 40 43 43 45 48 46 42 38 34 34 30 22 23 24 21 10 7 9 26 10 15 15 10 8 13 23 31 29 20 18 12 11 26 15 10 4 6 9 10 9 9 20 23 14 23 17 27 25 32 43 58
40 38 39 38 40 40 41 44 45 38 32 27 27 22 20 23 25 32 24 28 24 16 10 8 11 23 11 21 24 23 21 17 15 14 18 19 11 10 4 10 8 10 5 7 17 16 11 12 24 29 39 45 50 52
37 37 36 36 35 36 36 38 40 31 22 23 24 23 29 23 10 8 21 20 22 17 9 9 9 14 10 27 26 25 21 10 10 9 18 13 12 4 5 11 4 8 6 5 14 14 13 18 21 22 33 45 54 54
36 35 35 33 33 33 31 33 29 20 22 19 22 12 8 5 15 23 3 12 13 13 15 12 27 26 33 27 19 14 12 5 7 12 13 6 4 11 13 10 7 3 5 7 4 11 11 12 17 24 31 33 44 49
34 31 31 31 29 31 28 23 13 25 22 15 7 7 13 16 8 8 10 10 11 9 15 19 36 27 31 22 14 13 6 3 4 6 5 4 3 10 11 10 8 7 3 7 12 10 12 15 23 31 35 37 42 47
35 33 32 32 30 29 27 18 14 14 14 18 21 28 18 9 9 7 6 8 12 10 19 21 17 26 8 18 11 10 4 3 9 5 5 3 8 14 10 16 9 6 4 7 12 12 13 17 19 25 32 39 41 46
36 36 35 34 34 29 27 18 16 20 23 37 12 8 8 10 9 10 11 10 10 12 9 10 6 7 13 16 15 6 12 9 3 5 5 3 23 15 14 15 7 6 7 9 15 14 13 18 22 28 34 34 41 46
39 41 39 37 36 29 25 18 17 19 10 10 9 10 10 10 12 16 19 18 9 24 13 22 10 7 14 3 9 11 8 6 6 5 2 8 21 19 14 13 16 12 9 10 15 15 17 21 29 32 37 36 45 46
43 45 43 41 38 31 28 25 22 19 13 12 11 11 17 34 35 24 19 21 21 9 20 15 11 15 7 14 6 4 4 10 5 4 9 26 23 21 17 17 16 12 12 13 15 18 18 22 31 37 37 33 36 39
46 48 48 34 26 17 19 15 25 28 12 13 18 11 36 28 27 24 25 26 19 16 18 6 7 9 14 7 8 10 7 8 4 8 27 33 29 28 20 19 18 15 18 18 18 22 25 25 29 35 40 34 32 35
45 45 46 36 32 25 25 23 16 17 15 14 15 38 48 51 45 46 44 19 17 13 3 8 9 11 7 7 8 7 8 10 19 25 22 34 33 35 26 24 22 20 20 23 24 24 24 29 31 30 31 32 27 29
55 39 23 22 21 17 24 39 23 16 18 23 23 37 44 47 44 40 35 16 8 8 6 7 13 6 6 6 3 3 7 14 21 24 29 32 31 34 31 31 29 26 23 22 23 28 30 29 25 24 28 29 27 28
49 34 26 30 34 28 11 20 32 11 26 34 49 57 54 55 51 30 26 18 20 27 20 12 10 8 9 13 7 4 26 17 26 28 28 30 31 36 36 32 31 29 28 27 24 24 26 25 22 25 25 25 23 23
49 45 43 34 25 20 14 13 17 15 20 45 57 59 58 53 43 29 32 30 30 17 14 9 9 16 19 1 6 22 16 17 25 32 27 30 34 35 34 33 31 28 26 23 21 23 23 24 23 24 24 25 26 27
48 46 37 36 43 34 13 11 14 19 26 46 54 59 51 36 30 38 40 29 28 12 9 30 31 48 8 12 11 22 7 8 18 18 29 34 36 39 32 25 26 25 28 26 25 24 24 24 24 26 27 24 24 20
41 37 30 33 30 14 19 21 15 13 17 33 27 29 31 32 36 38 32 29 17 37 41 27 40 26 17 14 20 8 9 11 8 11 15 36 39 36 36 31 27 26 25 24 24 24 26 24 26 27 29 30 29 27
43 40 23 18 19 15 15 18 20 16 11 10 17 13 12 23 17 14 11 32 44 42 36 42 33 16 15 14 29 43 16 12 13 8 16 28 34 33 34 32 29 26 25 23 22 23 24 27 28 27 28 30 31 23
37 32 19 25 24 10 13 13 11 10 15 17 8 7 12 13 18 11 13 29 31 35 40 36 34 30 19 30 19 16 20 21 16 17 13 12 29 35 34 32 28 25 23 22 23 24 23 29 28 30 27 31 32 29
14 16 13 15 18 14 11 11 12 9 9 15 10 10 6 11 7 8 14 26 28 28 27 30 28 27 29 31 25 23 21 24 20 16 16 14 20 26 29 28 27 26 25 25 25 25 27 26 27 29 29 30 31 29
12 22 19 24 18 20 16 11 16 21 13 7 11 11 8 5 5 9 6 7 16 19 23 27 26 26 16 12 16 20 21 23 20 19 16 20 19 32 32 30 31 29 27 26 26 29 28 28 30 31 29 30 31 28
10 15 20 20 14 19 9 6 6 5 7 10 7 6 6 6 9 5 8 22 20 10 18 18 19 22 8 21 20 26 25 19 16 10 15 13 11 17 26 32 35 33 32 29 27 29 31 32 31 32 30 29 31 32
11 9 16 23 17 15 6 5 9 10 10 13 10 13 8 4 5 6 7 5 3 6 11 14 8 4 1 14 29 17 20 15 10 12 10 11 8 8 8 19 26 32 32 31 30 29 32 33 33 33 30 29 27 28
11 11 12 13 10 7 9 7 8 17 22 21 8 4 5 13 18 14 8 5 5 5 11 15 16 18 10 28 25 14 18 16 20 14 8 6 9 12 15 29 23 33 35 33 36 33 35 36 34 32 30 28 26 27
10 20 12 17 9 12 15 18 15 13 9 10 6 20 23 17 11 11 10 5 2 6 10 10 17 27 34 28 26 20 15 13 9 7 4 4 5 9 16 22 26 34 39 42 39 39 39 38 35 34 31 28 25 24
17 17 9 8 6 5 7 11 10 10 8 8 14 15 11 9 6 13 15 13 8 1 12 2 23 20 22 21 19 13 11 8 5 2 5 5 10 5 11 18 24 30 39 45 42 46 44 45 39 37 34 30 27 25
8 8 6 6 6 6 7 2 4 6 13 15 16 10 1 11 8 4 13 11 12 13 18 13 24 25 19 15 14 16 19 14 16 8 4 12 18 21 19 22 27 36 40 42 47 40 43 43 42 39 36 34 31 27
10 9 2 1 4 6 8 7 5 8 12 10 9 13 15 12 6 5 9 9 8 17 15 8 26 26 19 22 20 17 10 8 4 10 21 26 15 14 12 18 25 27 33 45 40 41 41 41 41 37 33 34 32 28
Wind_Direction_500mb
301 304 305 307 309 311 313 315 317 313 312 318 319 315 297 294 300 308 298 293 265 251 291 281 292 302 296 288 286 325 326 3 323 352 344 346 326 322 314 313 322 326 335 345 328 306 334 7 348 17 295 304 318 318
300 303 305 306 309 310 310 311 312 312 312 317 323 322 308 297 293 294 290 287 286 243 276 298 297 293 263 266 271 285 290 311 334 336 343 314 309 302 319 312 341 348 25 312 294 316 351 350 324 327 332 315 327 332
299 302 305 308 311 313 313 312 309 307 307 309 312 320 320 300 295 285 285 286 283 276 299 290 305 322 257 247 249 251 233 11 329 339 319 271 281 327 310 335 320 329 39 285 326 62 345 318 341 345 346 342 347 23
300 303 305 307 310 313 312 315 315 310 306 309 307 313 318 310 287 273 277 286 277 281 276 292 304 301 283 256 247 245 258 298 305 307 295 251 284 296 305 296 301 337 315 325 276 344 328 339 341 346 351 5 38 55
300 302 303 306 308 308 310 312 313 314 310 307 312 309 310 306 286 271 280 281 268 244 297 297 308 339 311 259 238 232 239 263 269 285 253 285 287 297 300 319 318 1 330 320 310 327 303 299 338 357 18 38 61 76
299 301 301 303 304 305 309 308 311 312 309 303 305 304 304 300 281 273 304 315 282 217 290 304 305 295 262 245 232 224 231 233 232 255 283 259 266 267 311 291 215 275 272 281 277 324 326 343 10 38 78 73 80 91
296 300 302 304 302 305 306 308 312 312 306 304 310 302 303 291 276 255 250 259 229 196 256 287 277 237 243 215 218 220 211 225 236 255 255 258 270 222 258 283 199 298 317 332 337 346 342 13 37 60 104 102 100 101
293 297 302 306 306 307 306 311 315 312 306 311 313 303 292 298 287 280 289 268 251 202 248 271 275 282 233 243 221 201 220 219 225 254 260 263 257 238 251 232 246 303 342 26 13 19 15 39 74 77 106 113 105 99
289 295 300 306 311 311 307 311 317 318 321 317 310 302 302 278 264 270 278 261 205 214 265 256 263 289 256 256 276 201 222 231 200 239 262 265 269 213 315 359 340 333 3 53 45 62 51 79 99 95 103 105 109 103
286 292 296 302 313 316 312 316 330 337 333 309 297 292 285 255 274 276 216 175 212 224 235 254 247 264 288 298 241 14 301 238 234 215 265 285 304 86 67 59 27 69 94 55 45 91 94 90 119 126 120 120 116 117
283 290 299 304 310 316 314 316 340 325 334 297 274 257 285 294 269 236 222 206 198 242 224 242 236 251 254 256 274 236 235 225 278 233 251 271 275 103 93 104 87 113 70 53 76 78 114 136 136 133 136 132 128 128
280 286 294 303 306 311 320 293 268 317 267 285 295 296 276 241 232 257 224 206 210 247 186 240 233 226 249 247 259 262 274 290 250 215 209 244 105 112 125 131 132 129 103 93 89 94 106 127 139 139 132 132 133 126
277 283 290 298 303 306 315 273 268 255 300 274 280 256 228 212 232 224 211 211 221 223 297 255 252 249 215 235 242 240 222 224 261 244 205 72 133 129 128 142 144 143 119 121 108 103 114 125 134 144 141 137 134 129
275 281 286 291 294 301 301 269 267 269 284 235 233 246 222 204 229 211 245 282 231 248 318 337 355 12 309 316 234 213 240 184 225 245 53 129 122 134 130 142 143 138 135 132 124 118 122 136 138 140 141 143 141 128
274 280 282 283 293 293 281 263 243 246 239 239 223 237 222 235 264 268 255 301 283 315 329 329 283 235 272 243 231 278 252 232 42 39 104 119 127 131 126 144 146 138 131 141 138 134 138 143 148 144 136 139 143 143
276 280 277 288 286 281 280 254 239 238 236 237 228 257 261 273 268 303 318 315 339 334 335 299 261 241 227 255 217 226 268 11 74 109 131 136 133 140 133 146 152 146 141 135 141 143 139 137 146 147 144 144 148 141
270 263 278 277 271 271 240 235 235 211 234 229 233 231 261 279 280 286 290 292 304 320 198 264 254 233 256 220 217 221 199 137 140 126 117 134 139 148 152 151 151 147 143 145 139 137 138 144 148 146 147 147 146 149
253 253 254 267 272 274 247 226 234 236 235 232 254 258 261 261 270 283 294 268 263 227 218 253 284 268 278 246 209 113 335 165 105 114 130 139 137 160 152 154 160 158 153 149 155 156 147 146 149 155 154 149 150 152
251 243 247 237 239 235 242 218 216 249 231 244 253 255 254 263 262 256 275 269 250 241 280 274 252 228 209 279 8 246 178 166 115 118 131 141 150 157 151 152 151 152 156 159 158 162 166 167 162 161 158 161 166 166
239 233 223 219 219 217 238 241 206 231 246 245 246 251 253 253 259 255 270 252 242 242 217 226 244 247 258 279 78 268 137 139 140 137 148 153 161 165 164 166 171 167 168 170 177 173 174 175 169 172 178 178 175 179
231 223 209 210 223 238 267 236 236 241 254 245 240 239 236 251 260 264 251 234 216 213 220 224 237 255 65 134 299 294 120 128 129 172 175 166 172 170 176 182 178 183 182 181 184 189 191 193 191 190 190 192 192 196
204 188 186 191 208 236 242 236 235 271 299 259 259 264 241 244 245 241 237 213 229 227 222 228 245 226 275 262 237 301 112 161 135 125 150 161 171 179 178 186 188 191 194 194 193 192 194 194 193 192 193 192 189 190
166 167 179 161 202 225 252 220 233 211 235 275 250 230 225 231 228 208 227 223 231 229 229 228 242 237 225 213 242 239 202 178 171 169 155 181 177 184 185 191 196 197 198 198 196 192 192 193 192 191 194 190 190 185
170 174 180 188 205 224 225 212 227 225 251 244 242 261 262 223 170 224 239 224 217 213 218 222 222 228 228 227 197 202 195 195 160 177 188 195 174 181 191 192 201 198 202 196 195 190 188 184 192 189 192 192 195 197
168 197 197 203 209 228 229 187 200 226 246 232 251 242 235 239 218 231 232 223 220 217 213 213 212 219 217 229 205 207 181 197 179 178 191 217 182 184 188 193 199 198 193 191 194 192 188 189 189 188 190 191 192 194
215 199 200 199 208 210 213 211 203 206 209 210 228 243 218 229 246 245 265 227 199 190 198 206 211 229 234 207 197 235 193 167 158 192 201 213 196 184 189 190 193 195 198 196 195 196 192 192 188 188 190 191 191 190
229 210 206 217 241 236 233 215 205 215 194 221 222 231 194 225 239 167 206 123 114 140 176 205 238 210 193 178 213 198 208 173 156 153 188 204 209 198 206 200 201 202 197 197 197 199 196 194 190 190 191 192 196 195
259 275 234 217 207 234 254 219 198 212 221 218 207 209 216 305 81 106 98 76 190 203 213 216 235 208 269 332 206 208 148 130 132 152 130 155 185 198 193 201 205 203 202 198 195 197 195 194 190 188 188 189 195 200
238 239 213 224 208 230 234 238 239 212 226 243 232 300 67 84 117 109 102 108 139 184 199 202 182 175 24 161 183 206 146 156 138 131 156 194 218 239 221 211 205 202 203 197 196 195 192 191 190 191 193 198 203 210
191 187 205 189 212 216 212 220 234 217 135 92 62 80 85 90 90 41 52 69 120 165 210 227 178 179 166 156 138 132 138 131 137 152 186 225 239 233 218 225 209 203 208 197 191 192 193 194 197 200 204 208 215 222
166 201 219 223 246 194 164 98 86 89 97 86 61 100 114 110 7 24 25 14 19 4 222 202 137 131 124 135 131 136 134 97 102 39 324 275 330 254 239 227 219 206 204 198 194 192 194 197 201 202 207 211 215 220
207 209 192 184 164 132 109 129 142 122 99 83 57 42 146 172 167 360 355 356 6 122 206 68 138 138 142 128 122 113 83 103 105 98 28 316 303 287 261 232 209 198 188 192 198 209 203 202 208 205 208 215 222 226
232 217 123 149 167 174 198 186 173 110 95 85 43 15 11 14 43 344 348 3 9 135 165 164 145 120 121 117 109 102 78 104 73 15 23 19 41 70 98 163 176 184 194 199 197 208 213 204 208 215 218 223 219 227
Wind_Speed_850mb
45 44 47 45 45 46 46 48 48 48 46 45 44 42 41 44 41 40 37 33 26 17 59 26 28 52 58 47 25 38 23 17 17 15 10 13 12 10 11 26 15 10 13 11 15 10 10 50 23 14 24 52 49 63
43 43 47 47 45 46 49 48 48 47 43 38 42 43 40 42 42 43 44 32 26 33 57 84 53 42 42 41 46 26 30 22 9 8 9 7 15 10 22 10 12 7 6 9 7 9 18 34 29 40 49 50 43 47
41 41 43 44 44 44 46 47 47 47 45 41 40 43 43 38 38 43 38 29 21 28 52 36 42 24 26 28 23 24 2 13 13 18 10 5 10 3 9 11 14 12 7 8 15 5 31 29 49 62 53 30 36 39
41 41 42 44 44 44 46 46 45 47 46 44 43 44 45 37 36 34 33 29 25 17 14 20 25 49 33 26 28 35 42 23 18 27 20 8 8 9 9 11 8 4 22 19 16 9 41 7 56 58 53 28 29 36
42 42 43 44 45 46 46 46 46 45 44 44 41 38 36 31 20 28 32 36 33 14 13 39 64 18 6 16 47 33 28 22 15 12 10 12 14 7 12 6 2 4 7 8 8 34 11 35 51 36 22 26 32 46
43 42 42 43 44 46 47 47 46 43 41 40 36 34 34 25 21 22 11 3 6 20 13 10 36 44 31 23 14 31 31 27 16 11 20 12 10 6 7 6 7 5 13 15 11 37 30 31 28 25 22 25 38 56
41 41 41 40 43 43 45 48 46 42 38 34 34 30 22 23 24 21 10 7 9 26 10 15 15 10 8 13 23 31 29 20 18 12 11 26 15 10 4 6 9 10 9 9 20 23 14 23 17 27 25 32 43 58
40 38 39 38 40 40 41 44 45 38 32 27 27 22 20 23 25 32 24 28 24 16 10 8 11 23 11 21 24 23 21 17 15 14 18 19 11 10 4 10 8 10 5 7 17 16 11 12 24 29 39 45 50 52
37 37 36 36 35 36 36 38 40 31 22 23 24 23 29 23 10 8 21 20 22 17 9 9 9 14 10 27 26 25 21 10 10 9 18 13 12 4 5 11 4 8 6 5 14 14 13 18 21 22 33 45 54 54
36 35 35 33 33 33 31 33 29 20 22 19 22 12 8 5 15 23 3 12 13 13 15 12 27 26 33 27 19 14 12 5 7 12 13 6 4 11 13 10 7 3 5 7 4 11 11 12 17 24 31 33 44 49
34 31 31 31 29 31 28 23 13 25 22 15 7 7 13 16 8 8 10 10 11 9 15 19 36 27 31 22 14 13 6 3 4 6 5 4 3 10 11 10 8 7 3 7 12 10 12 15 23 31 35 37 42 47
35 33 32 32 30 29 27 18 14 14 14 18 21 28 18 9 9 7 6 8 12 10 19 21 17 26 8 18 11 10 4 3 9 5 5 3 8 14 10 16 9 6 4 7 12 12 13 17 19 25 32 39 41 46
36 36 35 34 34 29 27 18 16 20 23 37 12 8 8 10 9 10 11 10 10 12 9 10 6 7 13 16 15 6 12 9 3 5 5 3 23 15 14 15 7 6 7 9 15 14 13 18 22 28 34 34 41 46
39 41 39 37 36 29 25 18 17 19 10 10 9 10 10 10 12 16 19 18 9 24 13 22 10 7 14 3 9 11 8 6 6 5 2 8 21 19 14 13 16 12 9 10 15 15 17 21 29 32 37 36 45 46
43 45 43 41 38 31 28 25 22 19 13 12 11 11 17 34 35 24 19 21 21 9 20 15 11 15 7 14 6 4 4 10 5 4 9 26 23 21 17 17 16 12 12 13 15 18 18 22 31 37 37 33 36 39
46 48 48 34 26 17 19 15 25 28 12 13 18 11 36 28 27 24 25 26 19 16 18 6 7 9 14 7 8 10 7 8 4 8 27 33 29 28 20 19 18 15 18 18 18 22 25 25 29 35 40 34 32 35
45 45 46 36 32 25 25 23 16 17 15 14 15 38 48 51 45 46 44 19 17 13 3 8 9 11 7 7 8 7 8 10 19 25 22 34 33 35 26 24 22 20 20 23 24 24 24 29 31 30 31 32 27 29
55 39 23 22 21 17 24 39 23 16 18 23 23 37 44 47 44 40 35 16 8 8 6 7 13 6 6 6 3 3 7 14 21 24 29 32 31 34 31 31 29 26 23 22 23 28 30 29 25 24 28 29 27 28
49 34 26 30 34 28 11 20 32 11 26 34 49 57 54 55 51 30 26 18 20 27 20 12 10 8 9 13 7 4 26 17 26 28 28 30 31 36 36 32 31 29 28 27 24 24 26 25 22 25 25 25 23 23
49 45 43 34 25 20 14 13 17 15 20 45 57 59 58 53 43 29 32 30 30 17 14 9 9 16 19 1 6 22 16 17 25 32 27 30 34 35 34 33 31 28 26 23 21 23 23 24 23 24 24 25 26 27
48 46 37 36 43 34 13 11 14 19 26 46 54 59 51 36 30 38 40 29 28 12 9 30 31 48 8 12 11 22 7 8 18 18 29 34 36 39 32 25 26 25 28 26 25 24 24 24 24 26 27 24 24 20
41 37 30 33 30 14 19 21 15 13 17 33 27 29 31 32 36 38 32 29 17 37 41 27 40 26 17 14 20 8 9 11 8 11 15 36 39 36 36 31 27 26 25 24 24 24 26 24 26 27 29 30 29 27
43 40 23 18 19 15 15 18 20 16 11 10 17 13 12 23 17 14 11 32 44 42 36 42 33 16 15 14 29 43 16 12 13 8 16 28 34 33 34 32 29 26 25 23 22 23 24 27 28 27 28 30 31 23
37 32 19 25 24 10 13 13 11 10 15 17 8 7 12 13 18 11 13 29 31 35 40 36 34 30 19 30 19 16 20 21 16 17 13 12 29 35 34 32 28 25 23 22 23 24 23 29 28 30 27 31 32 29
14 16 13 15 18 14 11 11 12 9 9 15 10 10 6 11 7 8 14 26 28 28 27 30 28 27 29 31 25 23 21 24 20 16 16 14 20 26 29 28 27 26 25 25 25 25 27 26 27 29 29 30 31 29
12 22 19 24 18 20 16 11 16 21 13 7 11 11 8 5 5 9 6 7 16 19 23 27 26 26 16 12 16 20 21 23 20 19 16 20 19 32 32 30 31 29 27 26 26 29 28 28 30 31 29 30 31 28
10 15 20 20 14 19 9 6 6 5 7 10 7 6 6 6 9 5 8 22 20 10 18 18 19 22 8 21 20 26 25 19 16 10 15 13 11 17 26 32 35 33 32 29 27 29 31 32 31 32 30 29 31 32
11 9 16 23 17 15 6 5 9 10 10 13 10 13 8 4 5 6 7 5 3 6 11 14 8 4 1 14 29 17 20 15 10 12 10 11 8 8 8 19 26 32 32 31 30 29 32 33 33 33 30 29 27 28
11 11 12 13 10 7 9 7 8 17 22 21 8 4 5 13 18 14 8 5 5 5 11 15 16 18 10 28 25 14 18 16 20 14 8 6 9 12 15 29 23 33 35 33 36 33 35 36 34 32 30 28 26 27
10 20 12 17 9 12 15 18 15 13 9 10 6 20 23 17 11 11 10 5 2 6 10 10 17 27 34 28 26 20 15 13 9 7 4 4 5 9 16 22 26 34 39 42 39 39 39 38 35 34 31 28 25 24
17 17 9 8 6 5 7 11 10 10 8 8 14 15 11 9 6 13 15 13 8 1 12 2 23 20 22 21 19 13 11 8 5 2 5 5 10 5 11 18 24 30 39 45 42 46 44 45 39 37 34 30 27 25
8 8 6 6 6 6 7 2 4 6 13 15 16 10 1 11 8 4 13 11 12 13 18 13 24 25 19 15 14 16 19 14 16 8 4 12 18 21 19 22 27 36 40 42 47 40 43 43 42 39 36 34 31 27
10 9 2 1 4 6 8 7 5 8 12 10 9 13 15 12 6 5 9 9 8 17 15 8 26 26 19 22 20 17 10 8 4 10 21 26 15 14 12 18 25 27 33 45 40 41 41 41 41 37 33 34 32 28
Wind_Direction_850mb
301 304 305 307 309 311 313 315 317 313 312 318 319 315 297 294 300 308 298 293 265 251 291 281 292 302 296 288 286 325 326 3 323 352 344 346 326 322 314 313 322 326 335 345 328 306 334 7 348 17 295 304 318 318
300 303 305 306 309 310 310 311 312 312 312 317 323 322 308 297 293 294 290 287 286 243 276 298 297 293 263 266 271 285 290 311 334 336 343 314 309 302 319 312 341 348 25 312 294 316 351 350 324 327 332 315 327 332
299 302 305 308 311 313 313 312 309 307 307 309 312 320 320 300 295 285 285 286 283 276 299 290 305 322 257 247 249 251 233 11 329 339 319 271 281 327 310 335 320 329 39 285 326 62 345 318 341 345 346 342 347 23
300 303 305 307 310 313 312 315 315 310 306 309 307 313 318 310 287 273 277 286 277 281 276 292 304 301 283 256 247 245 258 298 305 307 295 251 284 296 305 296 301 337 315 325 276 344 328 339 341 346 351 5 38 55
300 302 303 306 308 308 310 312 313 314 310 307 312 309 310 306 286 271 280 281 268 244 297 297 308 339 311 259 238 232 239 263 269 285 253 285 287 297 300 319 318 1 330 320 310 327 303 299 338 357 18 38 61 76
299 301 301 303 304 305 309 308 311 312 309 303 305 304 304 300 281 273 304 315 282 217 290 304 305 295 262 245 232 224 231 233 232 255 283 259 266 267 311 291 215 275 272 281 277 324 326 343 10 38 78 73 80 91
296 300 302 304 302 305 306 308 312 312 306 304 310 302 303 291 276 255 250 259 229 196 256 287 277 237 243 215 218 220 211 225 236 255 255 258 270 222 258 283 199 298 317 332 337 346 342 13 37 60 104 102 100 101
293 297 302 306 306 307 306 311 315 312 306 311 313 303 292 298 287 280 289 268 251 202 248 271 275 282 233 243 221 201 220 219 225 254 260 263 257 238 251 232 246 303 342 26 13 19 15 39 74 77 106 113 105 99
289 295 300 306 311 311 307 311 317 318 321 317 310 302 302 278 264 270 278 261 205 214 265 256 263 289 256 256 276 201 222 231 200 239 262 265 269 213 315 359 340 333 3 53 45 62 51 79 99 95 103 105 109 103
286 292 296 302 313 316 312 316 330 337 333 309 297 292 285 255 274 276 216 175 212 224 235 254 247 264 288 298 241 14 301 238 234 215 265 285 304 86 67 59 27 69 94 55 45 91 94 90 119 126 120 120 116 117
283 290 299 304 310 316 314 316 340 325 334 297 274 257 285 294 269 236 222 206 198 242 224 242 236 251 254 256 274 236 235 225 278 233 251 271 275 103 93 104 87 113 70 53 76 78 114 136 136 133 136 132 128 128
280 286 294 303 306 311 320 293 268 317 267 285 295 296 276 241 232 257 224 206 210 247 186 240 233 226 249 247 259 262 274 290 250 215 209 244 105 112 125 131 132 129 103 93 89 94 106 127 139 139 132 132 133 126
277 283 290 298 303 306 315 273 268 255 300 274 280 256 228 212 232 224 211 211 221 223 297 255 252 249 215 235 242 240 222 224 261 244 205 72 133 129 128 142 144 143 119 121 108 103 114 125 134 144 141 137 134 129
275 281 286 291 294 301 301 269 267 269 284 235 233 246 222 204 229 211 245 282 231 248 318 337 355 12 309 316 234 213 240 184 225 245 53 129 122 134 130 142 143 138 135 132 124 118 122 136 138 140 141 143 141 128
274 280 282 283 293 293 281 263 243 246 239 239 223 237 222 235 264 268 255 301 283 315 329 329 283 235 272 243 231 278 252 232 42 39 104 119 127 131 126 144 146 138 131 141 138 134 138 143 148 144 136 139 143 143
276 280 277 288 286 281 280 254 239 238 236 237 228 257 261 273 268 303 318 315 339 334 335 299 261 241 227 255 217 226 268 11 74 109 131 136 133 140 133 146 152 146 141 135 141 143 139 137 146 147 144 144 148 141
270 263 278 277 271 271 240 235 235 211 234 229 233 231 261 279 280 286 290 292 304 320 198 264 254 233 256 220 217 221 199 137 140 126 117 134 139 148 152 151 151 147 143 145 139 137 138 144 148 146 147 147 146 149
253 253 254 267 272 274 247 226 234 236 235 232 254 258 261 261 270 283 294 268 263 227 218 253 284 268 278 246 209 113 335 165 105 114 130 139 137 160 152 154 160 158 153 149 155 156 147 146 149 155 154 149 150 152
251 243 247 237 239 235 242 218 216 249 231 244 253 255 254 263 262 256 275 269 250 241 280 274 252 228 209 279 8 246 178 166 115 118 131 141 150 157 151 152 151 152 156 159 158 162 166 167 162 161 158 161 166 166
239 233 223 219 219 217 238 241 206 231 246 245 246 251 253 253 259 255 270 252 242 242 217 226 244 247 258 279 78 268 137 139 140 137 148 153 161 165 164 166 171 167 168 170 177 173 174 175 169 172 178 178 175 179
231 223 209 210 223 238 267 236 236 241 254 245 240 239 236 251 260 264 251 234 216 213 220 224 237 255 65 134 299 294 120 128 129 172 175 166 172 170 176 182 178 183 182 181 184 189 191 193 191 190 190 192 192 196
204 188 186 191 208 236 242 236 235 271 299 259 259 264 241 244 245 241 237 213 229 227 222 228 245 226 275 262 237 301 112 161 135 125 150 161 171 179 178 186 188 191 194 194 193 192 194 194 193 192 193 192 189 190
166 167 179 161 202 225 252 220 233 211 235 275 250 230 225 231 228 208 227 223 231 229 229 228 242 237 225 213 242 239 202 178 171 169 155 181 177 184 185 191 196 197 198 198 196 192 192 193 192 191 194 190 190 185
170 174 180 188 205 224 225 212 227 225 251 244 242 261 262 223 170 224 239 224 217 213 218 222 222 228 228 227 197 202 195 195 160 177 188 195 174 181 191 192 201 198 202 196 195 190 188 184 192 189 192 192 195 197
168 197 197 203 209 228 229 187 200 226 246 232 251 242 235 239 218 231 232 223 220 217 213 213 212 219 217 229 205 207 181 197 179 178 191 217 182 184 188 193 199 198 193 191 194 192 188 189 189 188 190 191 192 194
215 199 200 199 208 210 213 211 203 206 209 210 228 243 218 229 246 245 265 227 199 190 198 206 211 229 234 207 197 235 193 167 158 192 201 213 196 184 189 190 193 195 198 196 195 196 192 192 188 188 190 191 191 190
229 210 206 217 241 236 233 215 205 215 194 221 222 231 194 225 239 167 206 123 114 140 176 205 238 210 193 178 213 198 208 173 156 153 188 204 209 198 206 200 201 202 197 197 197 199 196 194 190 190 191 192 196 195
259 275 234 217 207 234 254 219 198 212 221 218 207 209 216 305 81 106 98 76 190 203 213 216 235 208 269 332 206 208 148 130 132 152 130 155 185 198 193 201 205 203 202 198 195 197 195 194 190 188 188 189 195 200
238 239 213 224 208 230 234 238 239 212 226 243 232 300 67 84 117 109 102 108 139 184 199 202 182 175 24 161 183 206 146 156 138 131 156 194 218 239 221 211 205 202 203 197 196 195 192 191 190 191 193 198 203 210
191 187 205 189 212 216 212 220 234 217 135 92 62 80 85 90 90 41 52 69 120 165 210 227 178 179 166 156 138 132 138 131 137 152 186 225 239 233 218 225 209 203 208 197 191 192 193 194 197 200 204 208 215 222
166 201 219 223 246 194 164 98 86 89 97 86 61 100 114 110 7 24 25 14 19 4 222 202 137 131 124 135 131 136 134 97 102 39 324 275 330 254 239 227 219 206 204 198 194 192 194 197 201 202 207 211 215 220
207 209 192 184 164 132 109 129 142 122 99 83 57 42 146 172 167 360 355 356 6 122 206 68 138 138 142 128 122 113 83 103 105 98 28 316 303 287 261 232 209 198 188 192 198 209 203 202 208 205 208 215 222 226
232 217 123 149 167 174 198 186 173 110 95 85 43 15 11 14 43 344 348 3 9 135 165 164 145 120 121 117 109 102 78 104 73 15 23 19 41 70 98 163 176 184 194 199 197 208 213 204 208 215 218 223 219 227